• In Kazakhstan
  • List of Countries
  • For 7 days
  • Water Temperature
  • Weather Map
  • News
  • Weather Widgets
  • user-avatar
    Login

    Hourly Weather Inverness

    Today, 31 May, Sunday

    Time Temperature Precipitation Wind Pressure Humidity
    00:00 +10°C° 0 mm 2 mps 765 mmHg 72%
    01:00 +9°C° 0 mm 2 mps 765 mmHg 73%
    02:00 +9°C° 0 mm 2 mps 765 mmHg 74%
    03:00 +8°C° 0 mm 2 mps 765 mmHg 74%
    04:00 +10°C° 0 mm 1 mps 765 mmHg 71%
    05:00 +11°C° 0 mm 1 mps 765 mmHg 68%
    06:00 +13°C° 0 mm 1 mps 765 mmHg 64%
    07:00 +14°C° 0 mm 1 mps 765 mmHg 58%
    08:00 +16°C° 0 mm 1 mps 765 mmHg 52%
    09:00 +18°C° 0 mm 2 mps 765 mmHg 46%
    10:00 +19°C° 0 mm 2 mps 765 mmHg 44%
    11:00 +20°C° 0 mm 2 mps 765 mmHg 42%
    12:00 +23°C° 0 mm 2 mps 765 mmHg 39%
    13:00 +22°C° 0 mm 3 mps 765 mmHg 39%
    14:00 +22°C° 0 mm 3 mps 765 mmHg 38%
    15:00 +22°C° 0 mm 3 mps 765 mmHg 37%
    16:00 +22°C° 0 mm 3 mps 765 mmHg 41%
    17:00 +21°C° 0 mm 2 mps 765 mmHg 45%
    18:00 +20°C° 0 mm 2 mps 765 mmHg 48%
    19:00 +18°C° 0 mm 2 mps 765 mmHg 57%
    20:00 +16°C° 0 mm 1 mps 766 mmHg 67%
    21:00 +14°C° 0 mm 1 mps 766 mmHg 76%
    22:00 +14°C° 0 mm 1 mps 766 mmHg 78%
    23:00 +13°C° 0 mm 1 mps 766 mmHg 81%

    Tomorrow, 1 June, Monday

    Time Temperature Precipitation Wind Pressure Humidity
    00:00 +12°C° 0 mm 1 mps 766 mmHg 84%
    01:00 +12°C° 0 mm 1 mps 766 mmHg 85%
    02:00 +12°C° 0 mm 1 mps 766 mmHg 86%
    03:00 +12°C° 0 mm 1 mps 766 mmHg 88%
    04:00 +13°C° 0 mm 1 mps 766 mmHg 84%
    05:00 +14°C° 0 mm 1 mps 766 mmHg 81%
    06:00 +15°C° 0 mm 1 mps 766 mmHg 77%
    07:00 +18°C° 0 mm 1 mps 766 mmHg 68%
    08:00 +20°C° 0 mm 1 mps 766 mmHg 60%
    09:00 +22°C° 0 mm 1 mps 766 mmHg 51%
    10:00 +22°C° 0 mm 1 mps 766 mmHg 49%
    11:00 +23°C° 0 mm 1 mps 766 mmHg 46%
    12:00 +24°C° 0 mm 1 mps 766 mmHg 44%
    13:00 +23°C° 0 mm 2 mps 766 mmHg 46%
    14:00 +23°C° 0 mm 2 mps 766 mmHg 48%
    15:00 +23°C° 0 mm 2 mps 766 mmHg 50%
    16:00 +21°C° 0 mm 2 mps 765 mmHg 54%
    17:00 +20°C° 0 mm 2 mps 765 mmHg 59%
    18:00 +19°C° 0 mm 2 mps 765 mmHg 64%
    19:00 +18°C° 0 mm 1 mps 765 mmHg 71%
    20:00 +16°C° 0 mm 1 mps 765 mmHg 79%
    21:00 +14°C° 0 mm 1 mps 765 mmHg 87%
    22:00 +13°C° 0 mm 0 mps 765 mmHg 87%
    23:00 +12°C° 0 mm 0 mps 765 mmHg 87%

    Day after tomorrow, 2 June, Tuesday

    Time Temperature Precipitation Wind Pressure Humidity
    00:00 +12°C° 0 mm 0 mps 765 mmHg 87%
    01:00 +13°C° 0 mm 1 mps 764 mmHg 86%
    02:00 +13°C° 0 mm 1 mps 764 mmHg 86%
    03:00 +13°C° 0 mm 1 mps 764 mmHg 85%
    04:00 +14°C° 0 mm 1 mps 764 mmHg 83%
    05:00 +15°C° 0 mm 1 mps 763 mmHg 80%
    06:00 +16°C° 0 mm 1 mps 763 mmHg 78%
    07:00 +18°C° 0.3 mm 1 mps 763 mmHg 75%
    08:00 +19°C° 0.3 mm 1 mps 763 mmHg 73%
    09:00 +18°C° 0.3 mm 2 mps 762 mmHg 70%
    10:00 +17°C° 0.5 mm 2 mps 762 mmHg 77%
    11:00 +16°C° 0.5 mm 2 mps 762 mmHg 83%
    12:00 +13°C° 0.5 mm 3 mps 762 mmHg 89%
    13:00 +14°C° 0.4 mm 2 mps 762 mmHg 91%
    14:00 +13°C° 0.4 mm 2 mps 761 mmHg 93%
    15:00 +13°C° 0.4 mm 2 mps 761 mmHg 95%
    16:00 +13°C° 0.7 mm 2 mps 761 mmHg 95%
    17:00 +12°C° 0.7 mm 2 mps 761 mmHg 95%
    18:00 +11°C° 0.7 mm 3 mps 761 mmHg 95%
    19:00 +11°C° 0.2 mm 3 mps 761 mmHg 95%
    20:00 +10°C° 0.2 mm 3 mps 761 mmHg 94%
    21:00 +10°C° 0.2 mm 4 mps 761 mmHg 94%
    22:00 +9°C° 0 mm 3 mps 761 mmHg 93%
    23:00 +8°C° 0 mm 3 mps 761 mmHg 93%

    3 June, Wednesday

    Time Temperature Precipitation Wind Pressure Humidity
    00:00 +8°C° 0 mm 3 mps 761 mmHg 92%
    01:00 +8°C° 0 mm 3 mps 761 mmHg 91%
    02:00 +8°C° 0 mm 3 mps 761 mmHg 91%
    03:00 +8°C° 0 mm 3 mps 761 mmHg 90%
    04:00 +8°C° 0 mm 2 mps 761 mmHg 89%
    05:00 +8°C° 0 mm 2 mps 760 mmHg 88%
    06:00 +8°C° 0 mm 2 mps 760 mmHg 87%
    07:00 +9°C° 0.1 mm 2 mps 760 mmHg 88%
    08:00 +9°C° 0.1 mm 2 mps 760 mmHg 88%
    09:00 +9°C° 0.1 mm 2 mps 760 mmHg 88%
    10:00 +10°C° 0 mm 2 mps 760 mmHg 86%
    11:00 +10°C° 0 mm 2 mps 760 mmHg 84%
    12:00 +12°C° 0 mm 1 mps 759 mmHg 81%
    13:00 +13°C° 0 mm 1 mps 759 mmHg 78%
    14:00 +13°C° 0 mm 1 mps 759 mmHg 75%
    15:00 +14°C° 0 mm 1 mps 758 mmHg 71%
    16:00 +14°C° 0 mm 1 mps 758 mmHg 70%
    17:00 +14°C° 0 mm 1 mps 758 mmHg 69%
    18:00 +14°C° 0 mm 2 mps 757 mmHg 68%
    19:00 +12°C° 0 mm 1 mps 757 mmHg 73%
    20:00 +11°C° 0 mm 1 mps 757 mmHg 79%
    21:00 +9°C° 0 mm 1 mps 757 mmHg 84%
    22:00 +9°C° 0 mm 1 mps 756 mmHg 85%
    23:00 +8°C° 0 mm 1 mps 756 mmHg 85%

    4 June, Thursday

    Time Temperature Precipitation Wind Pressure Humidity
    00:00 +7°C° 0 mm 1 mps 756 mmHg 86%
    01:00 +7°C° 0 mm 2 mps 755 mmHg 84%
    02:00 +7°C° 0 mm 2 mps 754 mmHg 82%
    03:00 +8°C° 0 mm 3 mps 754 mmHg 80%
    04:00 +8°C° 0 mm 3 mps 753 mmHg 79%
    05:00 +8°C° 0 mm 4 mps 753 mmHg 79%
    06:00 +8°C° 0 mm 4 mps 753 mmHg 78%
    07:00 +10°C° 0 mm 4 mps 752 mmHg 76%
    08:00 +11°C° 0 mm 4 mps 752 mmHg 75%
    09:00 +13°C° 0 mm 4 mps 752 mmHg 73%
    10:00 +13°C° 0 mm 4 mps 752 mmHg 72%
    11:00 +14°C° 0 mm 4 mps 751 mmHg 70%
    12:00 +14°C° 0 mm 4 mps 751 mmHg 69%
    13:00 +14°C° 0 mm 4 mps 751 mmHg 70%
    14:00 +14°C° 0 mm 4 mps 750 mmHg 71%
    15:00 +14°C° 0 mm 4 mps 750 mmHg 72%
    16:00 +13°C° 0.2 mm 4 mps 749 mmHg 78%
    17:00 +12°C° 0.2 mm 4 mps 749 mmHg 84%
    18:00 +12°C° 0.2 mm 4 mps 748 mmHg 89%
    19:00 +11°C° 0.5 mm 4 mps 748 mmHg 91%
    20:00 +11°C° 0.5 mm 4 mps 747 mmHg 93%
    21:00 +11°C° 0.5 mm 4 mps 746 mmHg 94%
    22:00 +11°C° 0.3 mm 4 mps 746 mmHg 94%
    23:00 +11°C° 0.3 mm 4 mps 745 mmHg 94%

    5 June, Friday

    Time Temperature Precipitation Wind Pressure Humidity
    00:00 +11°C° 0.3 mm 4 mps 745 mmHg 94%
    01:00 +10°C° 0.3 mm 5 mps 745 mmHg 93%
    02:00 +9°C° 0.3 mm 5 mps 745 mmHg 92%
    03:00 +9°C° 0.3 mm 5 mps 745 mmHg 92%
    04:00 +9°C° 0.2 mm 5 mps 745 mmHg 91%
    05:00 +9°C° 0.2 mm 5 mps 746 mmHg 90%
    06:00 +9°C° 0.2 mm 5 mps 747 mmHg 89%
    07:00 +9°C° 0.2 mm 5 mps 747 mmHg 84%
    08:00 +10°C° 0.2 mm 5 mps 748 mmHg 80%
    09:00 +10°C° 0.2 mm 5 mps 749 mmHg 75%
    10:00 +11°C° 0.2 mm 4 mps 749 mmHg 73%
    11:00 +12°C° 0.2 mm 4 mps 750 mmHg 70%
    12:00 +12°C° 0.2 mm 4 mps 750 mmHg 68%
    13:00 +12°C° 0.1 mm 5 mps 750 mmHg 66%
    14:00 +12°C° 0.1 mm 5 mps 751 mmHg 64%
    15:00 +13°C° 0.1 mm 5 mps 751 mmHg 62%
    16:00 +12°C° 0.1 mm 5 mps 751 mmHg 64%
    17:00 +10°C° 0.1 mm 5 mps 752 mmHg 65%
    18:00 +9°C° 0.1 mm 5 mps 752 mmHg 67%
    19:00 +8°C° 0 mm 4 mps 753 mmHg 70%
    20:00 +7°C° 0 mm 4 mps 753 mmHg 74%
    21:00 +7°C° 0 mm 3 mps 754 mmHg 78%
    22:00 +5°C° 0 mm 3 mps 754 mmHg 80%
    23:00 +6°C° 0 mm 2 mps 754 mmHg 83%
    Show more